Wind_Speed
8 4 3 6 1 1 3 4 2 4 3 4 9 4 7 4 5 4 4 13 18 36 35 33 32 32 28 25 23 20 20 18 17 15 10 8 8 8 7 6 6 6 6 6 6 6 7 7 8
7 2 6 4 2 3 4 4 9 9 4 17 11 9 5 10 15 12 6 17 26 35 36 34 34 31 28 27 24 22 22 17 17 14 10 9 8 8 7 8 8 8 7 7 7 8 9 10 10
5 3 4 3 3 7 5 5 7 12 21 10 5 5 6 4 8 11 8 21 35 35 36 35 34 31 29 27 26 24 21 18 17 13 10 10 9 9 9 10 9 9 8 9 9 10 11 11 12
2 2 4 2 10 4 4 5 4 14 15 5 8 11 9 13 8 10 13 25 37 37 36 37 33 31 28 26 26 24 20 18 16 13 12 11 10 10 10 10 9 9 10 10 10 11 12 14 14
2 3 2 2 4 4 3 8 8 7 7 11 18 6 9 16 19 16 17 31 38 38 38 35 33 31 30 27 25 23 20 18 16 14 13 12 11 11 11 10 10 10 10 10 10 12 13 13 14
3 3 1 3 5 3 6 12 5 4 5 15 7 16 8 10 11 13 19 35 37 39 38 33 33 31 29 26 24 22 20 18 17 16 15 14 13 12 12 11 11 11 11 10 11 12 13 14 14
4 2 2 3 4 5 5 7 3 3 6 6 15 5 8 11 10 13 22 36 37 39 35 34 34 31 27 26 24 21 20 19 17 17 16 15 14 14 13 12 11 11 11 10 10 11 11 13 13
2 2 2 4 3 5 4 2 4 7 10 16 7 4 5 15 19 15 28 36 38 36 37 37 35 31 30 26 23 21 20 19 19 18 17 17 16 15 14 13 12 11 11 10 10 10 11 12 13
1 1 3 4 3 4 3 2 7 11 14 18 17 13 14 26 18 18 30 35 37 36 37 37 36 33 30 27 24 22 21 20 20 19 18 17 16 15 15 14 13 12 12 11 10 10 12 12 13
2 2 5 5 3 5 8 7 13 12 17 16 25 26 17 24 15 23 36 41 38 38 40 40 37 34 30 27 26 24 23 22 21 20 19 18 17 16 16 15 14 13 12 12 11 11 13 12 12
2 4 3 10 16 16 12 14 12 13 15 19 22 29 24 22 18 28 40 45 42 41 42 40 37 33 32 29 27 25 23 23 23 21 20 19 17 16 16 15 15 13 12 12 12 13 13 12 12
3 11 14 14 16 14 13 12 13 19 27 31 29 28 30 24 18 28 35 38 40 41 45 40 36 33 31 28 27 25 25 25 25 23 21 19 18 17 17 16 15 14 13 12 12 12 13 13 13
5 6 11 17 25 21 22 21 16 20 34 33 32 29 30 26 19 23 35 39 39 43 44 43 38 34 31 28 27 26 26 26 25 23 21 19 18 17 17 16 15 14 13 12 12 13 13 13 13
4 11 20 18 22 13 11 12 7 20 22 25 25 26 23 18 23 20 31 39 35 41 44 42 39 35 31 29 28 27 26 26 25 23 21 20 17 16 16 16 15 14 13 12 12 12 12 13 13
8 8 8 3 2 5 4 7 8 14 15 18 17 19 19 19 16 19 26 36 39 35 42 41 41 36 32 29 27 27 27 27 25 23 21 19 18 16 16 16 15 14 13 12 12 12 12 12 13
4 2 5 3 3 3 3 10 7 20 16 19 14 17 17 15 15 15 17 25 49 45 48 44 42 37 33 30 28 27 28 26 25 23 21 20 18 17 17 17 16 14 14 13 12 11 12 13 13
3 4 4 8 3 4 3 16 15 19 18 20 27 28 22 20 19 14 15 24 40 47 47 42 38 37 34 31 29 28 28 26 24 23 21 20 19 18 17 17 16 15 14 14 13 12 11 14 14
5 5 5 8 4 4 15 22 21 23 19 25 28 30 25 22 22 18 14 19 22 30 29 11 29 40 33 30 29 29 28 26 26 24 21 20 19 19 19 18 17 17 15 14 14 12 14 14 14
3 4 10 13 11 6 11 18 23 22 16 19 23 27 28 26 19 20 17 19 26 25 20 24 20 20 29 30 31 31 31 30 27 25 22 21 20 20 19 19 18 18 16 15 13 14 14 16 17
5 5 8 11 2 4 10 21 14 7 5 10 18 24 25 25 23 20 19 19 25 29 34 36 27 25 17 27 33 32 30 28 26 25 23 22 21 20 19 19 18 17 16 16 14 12 14 16 18
4 5 4 7 8 3 11 7 5 4 6 9 12 17 18 22 22 21 18 18 25 30 32 34 35 37 24 29 29 30 29 27 28 28 27 25 22 20 18 18 17 17 16 15 15 13 12 15 17
4 5 6 5 5 4 5 5 5 5 11 2 5 6 12 19 20 23 20 19 24 29 30 35 36 41 29 35 34 30 32 34 35 31 27 25 24 21 19 18 18 17 17 16 15 14 13 11 12
7 2 4 1 2 2 1 0 8 4 5 6 6 5 11 14 14 21 21 21 20 28 32 34 35 34 34 36 46 40 35 36 33 30 29 27 25 23 21 20 19 18 17 15 14 13 12 11 10
4 3 2 2 1 1 2 2 6 3 4 7 7 14 13 15 12 14 20 20 24 28 33 34 36 37 41 32 42 46 39 36 32 32 32 30 28 26 24 21 19 18 17 15 14 13 11 10 8
1 3 3 4 3 3 2 1 9 9 8 5 10 20 16 16 15 11 18 22 23 31 34 32 37 44 44 39 47 47 45 33 32 34 34 32 31 29 26 24 22 19 17 15 13 11 9 8 6
3 3 3 4 2 4 2 4 6 4 8 16 11 13 11 14 15 14 17 24 24 29 34 35 39 39 40 41 46 39 42 40 42 38 37 34 31 28 25 23 20 19 16 15 12 10 9 6 4
3 3 2 1 2 1 3 6 9 3 5 5 9 11 13 14 16 13 13 20 24 29 35 37 39 42 43 46 46 53 51 47 49 39 36 33 29 27 24 22 20 18 16 14 11 7 6 6 5
4 4 1 1 3 4 4 4 5 7 8 8 8 11 16 15 15 16 10 17 24 27 30 34 36 41 45 49 47 51 49 46 46 43 40 33 32 29 27 24 22 22 17 14 13 11 9 7 6
2 2 2 2 3 3 4 5 6 7 9 6 9 16 17 18 16 17 13 14 21 25 29 32 35 39 42 44 47 52 50 51 46 43 37 35 35 34 31 30 27 21 17 19 17 13 10 7 4
3 5 5 3 3 2 2 9 7 7 6 5 14 27 31 22 19 16 16 13 18 24 28 30 33 38 39 39 42 45 48 46 46 43 40 38 37 32 31 26 23 23 22 18 15 12 9 6 4
Wind_Direction
343 352 145 150 149 356 242 229 306 288 214 11 314 249 227 238 178 223 281 194 187 178 175 173 173 168 172 172 167 163 166 169 167 167 170 178 177 176 179 174 168 162 151 140 131 123 117 114 111
360 62 133 120 119 230 241 241 261 251 289 319 310 274 265 255 245 266 255 186 179 179 175 173 171 168 174 171 167 173 178 175 176 177 181 181 173 170 164 157 151 144 137 128 123 118 113 113 113
14 114 135 133 164 220 222 221 249 314 328 315 293 285 276 250 242 234 241 184 176 180 176 172 169 173 176 173 173 180 180 181 181 185 186 176 171 164 156 149 142 136 131 125 121 113 110 110 110
51 100 72 162 216 233 214 257 6 328 323 326 336 291 277 264 278 249 221 185 177 179 175 172 173 176 176 177 178 182 183 182 185 188 182 172 167 159 151 143 136 131 126 120 114 109 108 112 111
82 79 79 271 258 263 263 283 325 310 291 312 318 279 281 280 281 261 211 184 179 177 173 171 175 177 178 179 181 183 185 187 187 184 177 170 164 156 148 141 136 132 125 120 114 107 109 113 115
68 74 90 250 260 264 280 270 270 270 292 310 327 317 275 283 267 247 203 183 179 177 172 174 179 181 184 177 184 185 187 188 185 180 174 168 162 154 147 143 139 133 124 122 116 112 115 118 120
102 90 217 246 267 273 239 227 207 303 295 288 321 282 283 309 286 245 199 184 179 177 176 177 182 184 181 185 186 188 189 186 182 178 174 168 162 155 149 143 138 133 125 121 115 115 116 120 124
88 97 208 236 246 277 265 284 324 352 305 297 272 246 305 309 317 229 193 181 180 177 180 182 185 189 186 186 189 189 188 185 182 179 175 169 164 158 151 144 138 132 126 123 118 119 122 123 124
79 17 252 253 205 247 265 316 300 308 289 291 276 254 301 323 282 218 183 181 181 183 187 187 187 188 189 186 187 189 187 185 183 179 175 170 164 157 152 147 141 137 132 127 127 127 129 131 127
135 224 240 222 229 255 277 280 295 297 288 288 294 278 278 335 254 212 188 186 185 187 192 192 190 195 187 187 188 187 186 185 182 179 175 170 165 161 156 151 147 143 138 133 130 128 132 131 126
181 231 239 262 270 280 281 284 278 277 273 275 276 284 295 309 266 217 198 196 188 192 193 192 196 194 190 190 189 188 185 183 180 178 175 171 168 165 160 156 151 148 141 135 131 129 132 133 129
262 249 258 279 285 287 282 287 268 254 264 280 277 275 282 290 288 229 206 195 193 196 195 193 197 195 193 193 190 189 186 184 182 178 176 174 172 169 165 161 157 153 146 142 136 134 134 136 133
223 266 278 282 287 279 277 260 257 268 271 275 275 272 273 281 277 243 219 205 202 200 198 198 197 198 194 194 192 190 188 186 183 178 174 175 176 173 169 166 163 158 153 148 143 141 138 138 137
266 280 287 290 282 270 262 269 199 259 275 275 266 267 271 264 276 260 229 213 210 211 201 196 199 199 196 195 194 191 189 186 184 182 179 175 177 177 174 172 167 164 158 154 150 145 141 142 141
278 302 303 269 250 280 248 275 225 264 287 275 258 260 275 270 260 251 239 225 210 221 209 203 200 198 197 196 195 192 189 188 186 184 181 179 175 176 176 176 172 169 162 161 155 150 148 150 146
316 281 340 269 321 285 167 280 265 286 278 268 268 285 271 267 265 254 237 220 211 210 211 199 200 197 195 195 195 192 191 189 188 188 184 180 176 176 177 178 177 173 168 165 162 159 156 157 152
6 293 281 311 222 239 222 283 271 270 272 262 267 278 270 257 253 253 238 224 218 206 207 203 200 201 196 194 193 193 191 191 190 190 186 183 178 177 180 180 180 178 175 169 167 167 164 159 156
279 307 278 262 274 269 280 268 277 270 252 250 260 268 264 256 249 245 250 232 215 171 185 211 199 195 195 194 192 191 192 192 194 193 190 188 183 181 182 184 184 181 179 176 171 172 164 162 161
229 244 266 275 280 278 261 277 289 295 254 249 254 262 260 251 248 248 243 232 222 218 230 235 244 208 184 192 192 194 196 194 193 192 192 191 190 187 186 189 187 185 180 177 173 173 169 163 162
221 270 277 285 225 281 312 297 294 298 254 242 248 255 254 258 256 245 238 229 218 214 205 210 205 216 248 200 194 200 200 196 195 193 193 195 196 193 191 193 191 187 185 179 176 179 174 169 165
233 221 249 262 324 271 327 291 326 289 290 278 265 262 264 257 250 250 231 223 216 208 211 204 202 197 193 223 202 201 201 198 198 200 196 194 197 198 195 192 193 189 186 187 181 178 182 187 181
275 207 249 277 5 308 24 293 308 325 321 257 314 260 275 268 254 248 238 229 210 212 214 208 204 202 206 211 204 204 204 204 205 202 195 195 196 196 194 193 193 191 188 189 186 185 188 188 185
236 197 260 277 235 355 341 326 273 327 317 318 327 338 328 328 268 249 243 233 233 219 211 212 212 200 200 200 204 201 206 208 210 201 201 198 196 193 195 193 193 194 190 188 188 186 184 184 193
347 321 45 60 130 340 231 112 285 280 241 311 306 324 338 333 303 254 241 234 234 219 218 213 210 202 192 198 201 202 207 212 207 204 203 200 197 194 194 192 192 193 191 190 190 184 181 182 182
120 35 324 346 2 244 164 219 254 275 273 257 296 313 331 333 311 276 232 224 228 214 215 214 208 198 203 212 198 201 202 199 216 211 206 201 198 195 193 189 190 191 189 189 189 184 181 179 184
173 158 170 268 277 291 121 233 254 233 286 289 305 321 320 330 320 285 246 223 221 216 211 210 204 202 202 199 199 202 205 220 207 210 207 203 200 194 190 185 187 187 185 187 186 185 184 185 208
160 188 190 281 31 330 251 272 294 294 297 274 319 352 340 335 329 307 257 229 215 214 216 216 209 204 203 204 207 210 212 215 201 202 207 200 194 190 185 183 182 181 180 182 182 190 207 201 195
180 156 78 24 289 274 274 272 247 287 288 319 331 330 333 329 325 310 245 230 220 219 219 222 221 215 213 211 215 206 211 213 198 190 194 194 188 187 185 186 184 180 187 198 206 204 198 179 180
148 215 158 158 181 233 298 247 227 249 266 297 295 304 310 308 309 308 255 231 225 219 214 216 218 216 218 218 213 212 214 203 201 194 189 193 198 199 191 187 197 198 191 194 196 190 185 186 200
178 201 157 154 232 232 213 269 246 256 302 296 286 297 300 291 293 289 267 234 227 222 216 217 219 218 214 212 213 211 211 205 197 195 198 200 202 204 196 190 177 177 183 183 181 187 185 193 211
Height
1508 1508 1509 1512 1519 1519 1514 1510 1507 1503 1499 1500 1499 1496 1492 1489 1490 1493 1481 1481 1484 1488 1492 1497 1503 1508 1512 1516 1519 1522 1524 1525 1527 1529 1530 1532 1533 1534 1535 1536 1537 1538 1538 1539 1539 1540 1540 1541 1541
1508 1508 1509 1511 1519 1522 1518 1509 1505 1500 1499 1497 1495 1493 1492 1487 1485 1483 1481 1482 1484 1488 1492 1496 1502 1507 1511 1515 1518 1521 1523 1525 1527 1529 1530 1531 1533 1534 1535 1536 1537 1537 1538 1539 1539 1540 1540 1541 1542
1509 1509 1510 1511 1518 1515 1513 1506 1502 1501 1499 1498 1494 1492 1490 1485 1482 1481 1480 1481 1484 1488 1492 1496 1502 1506 1510 1514 1516 1519 1522 1524 1526 1528 1529 1531 1532 1534 1535 1536 1536 1537 1538 1539 1540 1540 1541 1541 1542
1509 1510 1513 1513 1511 1510 1507 1503 1506 1503 1498 1498 1497 1492 1488 1483 1482 1479 1479 1480 1484 1488 1492 1497 1501 1505 1510 1513 1515 1518 1521 1523 1525 1527 1529 1530 1532 1533 1535 1536 1536 1537 1538 1539 1539 1540 1541 1542 1543
1509 1509 1514 1516 1514 1509 1507 1506 1505 1503 1502 1498 1497 1489 1486 1481 1480 1479 1477 1478 1482 1488 1492 1497 1501 1505 1508 1512 1514 1517 1520 1522 1524 1526 1528 1530 1532 1533 1534 1536 1537 1538 1539 1540 1540 1541 1542 1543 1544
1509 1511 1517 1517 1513 1510 1506 1504 1504 1502 1499 1496 1494 1493 1484 1480 1478 1477 1476 1479 1481 1487 1493 1497 1502 1505 1508 1510 1513 1516 1519 1521 1523 1525 1527 1529 1531 1533 1534 1536 1537 1538 1540 1541 1541 1542 1543 1544 1545
1511 1514 1517 1517 1513 1509 1503 1500 1500 1500 1498 1494 1492 1490 1483 1480 1478 1477 1475 1478 1482 1486 1492 1496 1501 1504 1507 1509 1513 1515 1518 1520 1523 1525 1527 1529 1530 1532 1534 1536 1537 1539 1541 1542 1543 1544 1544 1545 1547
1512 1514 1517 1514 1509 1505 1500 1499 1499 1498 1494 1493 1490 1486 1483 1480 1479 1477 1476 1478 1482 1486 1491 1494 1498 1502 1505 1508 1511 1514 1517 1519 1522 1524 1526 1528 1530 1532 1534 1536 1538 1540 1541 1542 1544 1545 1546 1546 1547
1513 1516 1514 1510 1508 1501 1500 1500 1498 1497 1493 1490 1487 1483 1482 1478 1476 1476 1476 1478 1481 1485 1489 1492 1495 1499 1503 1507 1510 1513 1516 1518 1521 1523 1526 1528 1531 1532 1534 1536 1538 1539 1541 1543 1544 1545 1546 1547 1548
1514 1517 1510 1504 1501 1499 1498 1498 1496 1495 1490 1486 1483 1480 1478 1476 1473 1473 1470 1472 1476 1480 1486 1489 1493 1497 1501 1505 1508 1511 1513 1517 1520 1522 1525 1528 1530 1532 1534 1536 1538 1539 1541 1543 1544 1545 1547 1548 1549
1511 1511 1506 1501 1499 1497 1495 1492 1493 1490 1485 1484 1480 1476 1474 1474 1473 1470 1468 1470 1472 1477 1482 1486 1491 1495 1498 1502 1505 1509 1512 1515 1518 1521 1524 1527 1530 1532 1535 1536 1538 1539 1541 1543 1544 1545 1547 1548 1550
1510 1503 1503 1497 1495 1494 1492 1489 1486 1483 1479 1476 1473 1472 1469 1469 1469 1467 1467 1468 1472 1474 1478 1483 1489 1492 1496 1501 1504 1508 1511 1514 1517 1520 1523 1526 1529 1532 1534 1537 1538 1540 1541 1543 1544 1545 1547 1548 1549
1506 1500 1497 1495 1492 1489 1488 1483 1481 1476 1470 1467 1467 1465 1464 1465 1464 1463 1464 1462 1458 1469 1472 1479 1485 1490 1494 1499 1503 1506 1510 1513 1516 1519 1522 1525 1529 1531 1534 1537 1538 1540 1541 1543 1544 1545 1546 1548 1549
1502 1498 1493 1488 1485 1485 1482 1476 1476 1464 1463 1461 1460 1458 1458 1459 1459 1457 1457 1459 1455 1465 1469 1474 1481 1488 1493 1497 1501 1505 1509 1513 1516 1519 1522 1524 1528 1531 1534 1537 1539 1541 1542 1543 1544 1546 1546 1548 1550
1500 1498 1489 1484 1483 1481 1478 1472 1469 1459 1460 1456 1453 1452 1453 1454 1454 1451 1453 1452 1458 1451 1467 1470 1477 1484 1490 1496 1501 1504 1509 1512 1516 1519 1522 1524 1527 1531 1534 1537 1539 1541 1542 1543 1544 1545 1547 1548 1549
1500 1499 1493 1481 1481 1478 1478 1467 1460 1458 1456 1453 1450 1448 1448 1448 1448 1448 1451 1450 1444 1449 1458 1466 1475 1481 1487 1493 1499 1503 1507 1512 1516 1519 1521 1524 1526 1530 1533 1536 1538 1540 1542 1543 1544 1545 1546 1548 1549
1503 1499 1496 1486 1478 1478 1476 1463 1451 1452 1451 1448 1444 1442 1441 1443 1443 1443 1447 1451 1449 1452 1454 1457 1472 1480 1484 1490 1496 1502 1506 1511 1515 1519 1521 1523 1525 1528 1532 1534 1537 1539 1541 1542 1543 1544 1546 1547 1549
1505 1501 1497 1490 1479 1476 1471 1458 1445 1443 1445 1441 1438 1436 1435 1436 1437 1439 1438 1441 1445 1439 1449 1454 1455 1472 1482 1489 1494 1500 1505 1508 1512 1517 1520 1523 1524 1526 1529 1533 1536 1537 1539 1541 1542 1544 1544 1546 1548
1498 1500 1496 1483 1477 1476 1463 1453 1440 1434 1435 1433 1432 1431 1430 1430 1433 1435 1436 1436 1437 1442 1448 1456 1460 1467 1478 1488 1492 1497 1500 1504 1509 1513 1517 1521 1523 1525 1527 1531 1534 1536 1538 1539 1541 1543 1544 1544 1546
1498 1497 1489 1478 1474 1473 1460 1448 1436 1432 1429 1426 1426 1425 1426 1427 1428 1430 1433 1436 1438 1440 1444 1453 1453 1461 1475 1489 1491 1495 1500 1504 1510 1512 1514 1518 1522 1523 1525 1529 1532 1535 1538 1537 1539 1542 1542 1543 1544
1494 1492 1486 1482 1474 1469 1463 1444 1438 1431 1429 1425 1423 1423 1424 1423 1424 1425 1429 1432 1435 1438 1440 1442 1444 1452 1461 1485 1489 1493 1499 1504 1508 1509 1511 1515 1520 1523 1525 1528 1531 1533 1537 1538 1538 1541 1543 1543 1543
1490 1481 1481 1479 1479 1480 1472 1463 1444 1434 1426 1425 1423 1420 1421 1420 1421 1421 1424 1427 1430 1434 1438 1441 1444 1449 1451 1469 1480 1489 1494 1498 1500 1505 1508 1512 1516 1520 1524 1526 1529 1532 1534 1536 1537 1539 1542 1543 1543
1480 1477 1478 1477 1479 1482 1475 1477 1440 1436 1427 1422 1420 1421 1421 1418 1417 1418 1420 1424 1426 1430 1433 1438 1441 1447 1454 1457 1463 1480 1489 1494 1498 1503 1506 1509 1513 1517 1521 1524 1527 1531 1533 1535 1537 1538 1540 1541 1542
1479 1479 1480 1483 1481 1477 1471 1471 1445 1436 1427 1423 1418 1418 1419 1416 1415 1415 1417 1421 1423 1427 1430 1433 1439 1445 1451 1453 1454 1463 1479 1489 1494 1498 1502 1506 1509 1513 1517 1521 1525 1529 1531 1533 1536 1536 1538 1540 1541
1479 1484 1484 1484 1486 1465 1471 1472 1442 1429 1427 1426 1422 1416 1416 1415 1412 1413 1413 1416 1418 1422 1426 1430 1435 1440 1445 1450 1451 1461 1468 1477 1487 1494 1497 1502 1505 1509 1514 1516 1521 1526 1528 1532 1534 1535 1536 1538 1540
1479 1481 1490 1484 1478 1473 1472 1466 1437 1425 1424 1421 1419 1415 1413 1412 1410 1409 1410 1412 1414 1418 1422 1426 1430 1436 1441 1446 1451 1457 1462 1463 1475 1486 1492 1497 1502 1508 1513 1515 1519 1523 1525 1529 1532 1533 1534 1536 1538
1478 1481 1479 1479 1491 1487 1461 1450 1432 1421 1418 1417 1416 1414 1412 1411 1408 1406 1406 1411 1412 1414 1417 1419 1425 1431 1436 1441 1446 1452 1457 1459 1461 1472 1490 1493 1499 1505 1510 1513 1517 1520 1523 1527 1530 1533 1535 1534 1535
1472 1474 1480 1487 1481 1471 1461 1454 1440 1423 1416 1415 1416 1414 1411 1409 1407 1405 1404 1406 1408 1410 1413 1417 1420 1425 1429 1435 1440 1445 1448 1457 1461 1466 1478 1487 1494 1500 1505 1508 1513 1519 1521 1523 1529 1530 1533 1533 1536
1476 1475 1476 1480 1480 1470 1469 1447 1426 1422 1416 1417 1414 1412 1410 1407 1404 1402 1401 1402 1404 1407 1410 1413 1417 1420 1425 1430 1434 1438 1444 1451 1459 1463 1473 1481 1488 1492 1495 1501 1510 1513 1519 1523 1527 1527 1529 1532 1532
1468 1470 1473 1474 1471 1479 1476 1440 1414 1415 1416 1417 1414 1410 1406 1403 1400 1398 1397 1399 1400 1402 1406 1409 1413 1416 1420 1424 1429 1434 1440 1447 1453 1460 1466 1470 1478 1486 1492 1500 1506 1511 1517 1521 1523 1525 1526 1527 1528